COSMOS 1987 (GLONASS)

Satellite information

Favourite Embed

Satellite Type and Status

PAYLOADIN ORBIT

Key statistics

Satellite COSMOS 1987 (GLONASS) at a glance.

Uptime

13328

Days in orbit

Revolutions

≈ 2.1

Per day

Orbit

MEO

Medium Earth Orbit

Inclination

64.7

Latest

Satellite identification and parameters

Extended collection of information and parameters for COSMOS 1987 (GLONASS).

Object identification

Identified? True

Debris? False

Object name: COSMOS 1987 (GLONASS)

International designator: 1989-001A

Object number (NORAD): 19749

Object ID (CCSDS): 19749

Country: COMMONWEALTH OF INDEPENDENT STATES (CIS)

Current information (Y/N): Y

RCS size: LARGE

Orbital parameters

Period: 675.823 minutes

Inclination: 64.7317 deg

SMA: 25510.307 km

Apoapsis: 19145.119 km

Periapsis: 19119.226 km

RAAN: 84.2915 deg

Eccentricy: 0.0005075

Argument of periapsis: 240.7727 deg

Mean anomaly: 312.6361 deg

Mean motion: 2.13073393 rev/day

Mean motion (dot): -0.00000041 rev/day2

B* drag term: 0.0 1/REarth

Two-line elements (TLE)

Creation date: July 2, 2025, 2:08 a.m.

Reference frame: TEME

Reference center: EARTH

Epoch: July 1, 2025, 3:37 p.m. UTC

TLE line 0: 0 COSMOS 1987 (GLONASS)

TLE line 1: 1 19749U 89001A 25182.65090858 -.00000041 00000-0 00000-0 0 9993

TLE line 2: 2 19749 64.7317 84.2915 0005075 240.7727 312.6361 2.13073393283821

Live tracking on map

Real-time ground track for satellite COSMOS 1987 (GLONASS).

In-orbit conjunctions

A list of the most updated potential collisions computed for object COSMOS 1987 (GLONASS).

Target Orbit TCA Probability of collision Miss distance Type
COSMOS 1521 (GLONASS) MEO 2025-01-16 02:32:36 TBA 4296.0 (m) PAYLOAD
COSMOS 2375 (GLONASS) MEO 2024-10-12 14:30:01 TBA 4261.0 (m) PAYLOAD
COSMOS 2375 (GLONASS) MEO 2024-10-12 03:14:17 TBA 3570.0 (m) PAYLOAD
COSMOS 2375 (GLONASS) MEO 2024-10-11 15:58:33 TBA 3362.0 (m) PAYLOAD
COSMOS 2375 (GLONASS) MEO 2024-10-11 04:42:48 TBA 3075.0 (m) PAYLOAD

Associated space launch

GLONASS navigation satellites

COSMOS 1987 (GLONASS) was lifted into orbit during the mission ‘Proton | Uragan 32 & 33’, on board a Proton space rocket.

The launch took place on Jan. 10, 1989, 2:05 a.m. from 200/39 (200L).

For more information about the launch, click the button.

Launch to space Proton | Uragan 32 & 33
Proton | Uragan 32 & 33

Agency: N/A

Status: Launch Successful

Launch date: Jan. 10, 1989, 2:05 a.m. UTC

Rocket: Proton

Launch pad: 200/39 (200L)

Location: Baikonur Cosmodrome, Republic of Kazakhstan

...

Latest news about this satellite

There are no fresh news available about this satellite. Check back as we update our databases every day.


Newsletter sign-up

Weekly statistics, charts and insights to help you stay on top of the space industry.